Back to Previous

Regional Weather Roundup

000
ASUS44 KLZK 291605
RWRLZK

WEATHER ROUNDUP FOR ARKANSAS
NATIONAL WEATHER SERVICE LITTLE ROCK AR
1100 AM CDT SUN MAR 29 2015

NOTE: "FAIR" INDICATES FEW OR NO CLOUDS BELOW 12,000 FEET WITH NO
SIGNIFICANT WEATHER AND/OR OBSTRUCTIONS TO VISIBILITY.

ARZ001-003-010-029-291700-
NORTHWEST ARKANSAS
  
CITY           SKY/WX    TMP DP  RH WIND       PRES   REMARKS
FAYETTEVILLE   SUNNY     57  42  57 S20G26    30.00F                  
FORT SMITH     SUNNY     53  38  56 E13       30.07F                  
HARRISON       SUNNY     57  40  52 S20       30.04F                  
BENTONVILLE    SUNNY     59  39  47 SW9       30.04R                  
ROGERS         SUNNY     61  42  49 SW9G21    30.04R                  
SILOAM SPGS    SUNNY     57  39  51 S22       30.00S                  
HIGHFILL       SUNNY     58  40  51 S10G22    29.99R                  
$$

ARZ004-005-016-291700-
NORTH CENTRAL ARKANSAS
  
CITY           SKY/WX    TMP DP  RH WIND       PRES   REMARKS
BATESVILLE     CLOUDY    46  36  66 SE9       30.17F                  
FLIPPIN        SUNNY     54  36  50 SE10      30.07F                  
MTN HOME       SUNNY     51  34  52 SE9G20    30.08F                  
$$

ARZ040-041-291700-
WEST CENTRAL ARKANSAS
  
CITY           SKY/WX    TMP DP  RH WIND       PRES   REMARKS
MENA           SUNNY     59  45  58 SW6       30.10S                  
MOUNT IDA      PTSUNNY   51  43  74 VRB3      30.10S                  
$$

ARZ009-017-025-026-028-291700-
NORTHEAST ARKANSAS
  
CITY           SKY/WX    TMP DP  RH WIND       PRES   REMARKS
CORNING          N/A     48  32  53 S16       30.21F                  
JONESBORO      CLOUDY    44  32  62 S13       30.22F                  
NEWPORT        CLOUDY    46  36  68 SE9       30.22S                  
BLYTHEVILLE    CLOUDY    50  29  44 S16G24    30.23F                  
$$

ARZ022-023-033-042-044-291700-
CENTRAL ARKANSAS
  
CITY           SKY/WX    TMP DP  RH WIND       PRES   REMARKS
LITTLE ROCK    CLOUDY    51  40  65 S9        30.17F                  
N LITTLE ROCK  CLOUDY    48  42  79 S9G16     30.17F                  
JACKSONVILLE   CLOUDY    49  40  68 S10G17    30.16F                  
SEARCY         CLOUDY    50  39  66 S13       30.19F                  
HOT SPRINGS    CLOUDY    47  42  83 SE6       30.15F                  
RUSSELLVILLE   SUNNY     47  37  68 E10       30.14F                  
CLINTON        CLOUDY    48  39  71 S12       30.17F                  
$$

ARZ036-291700-
EAST ARKANSAS
  
CITY           SKY/WX    TMP DP  RH WIND       PRES   REMARKS
WEST MEMPHIS   CLOUDY    49  34  56 S16       30.22F                  
$$

ARZ050-053-066-070-073-291700-
SOUTHWEST ARKANSAS
  
CITY           SKY/WX    TMP DP  RH WIND       PRES   REMARKS
ARKADELPHIA    CLOUDY    51  46  83 S7        30.16F                  
CAMDEN         MOSUNNY   63  48  59 MISG      30.16F                  
TEXARKANA      SUNNY     60  52  74 S12       30.12F                  
EL DORADO      MOSUNNY   63  53  70 S14G22    30.17F                  
DE QUEEN       SUNNY     55  43  63 VRB3      30.10F                  
$$

ARZ056-057-069-291700-
SOUTHEAST ARKANSAS
  
CITY           SKY/WX    TMP DP  RH WIND       PRES   REMARKS
PINE BLUFF     CLOUDY    55  45  68 S14       30.19F                  
STUTTGART      CLOUDY    52  39  62 SE17      30.19F                  
MONTICELLO     CLOUDY    55  44  66 S7        30.21S                  

$$




USA.gov is the U.S. government's official web portal to all federal, state and local government web resources and services.